Regional Weather Roundup
Issued by NWS

Home | Current Version | Previous Version | Text Only | Print | Product List | Glossary Off
Versions: 1 2 3 4 5 6 7 8 9 10 11 12 13 14 15 16 17 18 19 20 21 22 23 24 25 26 27 28 29 30 31 32 33 34 35 36 37 38 39 40 41 42 43 44 45 46 47 48 49 50

000
ASUS45 KTFX 111404
RWRMT
MONTANA HOURLY WEATHER ROUNDUP
NATIONAL WEATHER SERVICE GREAT FALLS MT
804 AM MDT FRI JUL 11 2014

NOTE: "FAIR" INDICATES FEW OR NO CLOUDS BELOW 12000 FEET WITH NO
SIGNIFICANT WEATHER AND/OR OBSTRUCTIONS TO VISIBILITY.

* THESE STATIONS ARE NOT UNDER NWS QUALITY CONTROL. THEY DO NOT
   REPORT WEATHER SUCH AS PRECIPITATION OR FOG.

MTZ001>007-043-111500-
WEST OF THE DIVIDE
CITY           SKY/WX    TMP DP  RH WIND       PRES   REMARKS
KALISPELL      SUNNY     68  48  49 NE10      30.08R
MISSOULA       SUNNY     63  43  48 NW5       30.07R
BUTTE          PTCLDY    55  39  55 E5        30.19R
MULLAN PASS    SUNNY     63  39  41 CALM      30.17R
* ESSEX        N/A      N/A N/A N/A N/A        N/A
* LINCOLN      N/A       60  50  70 NE9G21     N/A
* LOOKOUT PASS N/A       56  42  60 S1         N/A
* POLSON       N/A       60  49  67 N2         N/A
* RONAN APT    SUNNY     54  48  80 N/A        N/A
* SEELEY LAKE  N/A       46  42  86 E1         N/A
* THOMP F APT  SUNNY     58  46  65 NE4        N/A
* YAAK HILL    N/A       56  50  80 SE1        N/A
$$

MTZ008-052>055-111500-
SOUTHWEST MONTANA
CITY           SKY/WX    TMP DP  RH WIND       PRES   REMARKS
BOZEMAN        PTCLDY    63  48  58 S8        30.12R
DILLON         PTCLDY    64  46  52 NE14      30.13R
W YELLOWSTONE  PTCLDY    54  48  80 CALM      30.24R
* THREE FORKS  SUNNY     66  66 100 N8         N/A
* BOULDER HILL N/A       55  49  80 VRB14G20    N/A
* MONIDA PASS  N/A       58  48  70 SE4        N/A
* RAYNOLDS PAS N/A       59  37  44 SE2        N/A
* WHITEHALL    N/A       63  51  65 NE11G24    N/A
* WISE RIVER   N/A       50  41  71 NW4        N/A
$$

MTZ009>010-012-014-046-048-049-054-111500-
EAST SLOPES AND CENTRAL MONTANA
CITY           SKY/WX    TMP DP  RH WIND       PRES   REMARKS
CUT BANK       CLOUDY    55  46  72 N8        30.25R
GREAT FALLS    CLOUDY    61  52  72 N15       30.19R
HELENA         PTSUNNY   64  52  65 NW12      30.16R
* CONRAD       PTCLDY    55  55 100 NW8        N/A
* DEARBORN     N/A       62  51  67 NW6G11     N/A
* EAST GLACIER N/A       51  46  83 E4         N/A
* MONARCH      N/A       55  51  86 NW6        N/A
* PENDROY      N/A       53  48  83 VRB12      N/A
* ROGERS PASS  N/A       53  48  83 SE3G10     N/A
* SAINT MARY   N/A       53  47  80 E2         N/A
* SWEET GRASS  N/A       53  51  93 N12        N/A
$$

MTZ011-013-016-021-035-040-045-047-050-051-111500-
NORTH CENTRAL MONTANA
CITY           SKY/WX    TMP DP  RH WIND       PRES   REMARKS
HAVRE          CLOUDY    61  50  67 NE7       30.17R
* CHESTER      N/A       56  48  75 NE9G14     N/A
* DENTON       N/A       64  52  65 NE4        N/A
* GEYSER       N/A       62  53  73 NE6G11     N/A
* JUDITH GAP   N/A       59  58  97 N21G29     N/A
* LOMA         N/A       61  49  65 VRB18G23    N/A
$$

MTZ017>020-022>027-061-062-111500-
NORTHEAST MONTANA
CITY           SKY/WX    TMP DP  RH WIND       PRES   REMARKS
GLASGOW        CLOUDY    63  61  93 CALM      30.07F
GLENDIVE       PTSUNNY   64  57  78 N5        30.09R
JORDAN         PTCLDY    66  55  68 E15       30.07F
SIDNEY         CLOUDY    66  59  78 E3        30.04F
WOLF POINT     CLOUDY    63  57  81 W9        30.09R
* BEAVER HILL  N/A       62  59  90 VRB12      N/A
* CIRCLE       N/A       63  60  90 N/A        N/A
* LINDSAY DVD  N/A       62  56  81 N8         N/A
* NAVAJO       N/A       60  52  75 N9         N/A
$$

MTZ028>042-056>058-111500-
SOUTHCENTRAL AND SOUTHEAST MONTANA
CITY           SKY/WX    TMP DP  RH WIND       PRES   REMARKS
BAKER          CLOUDY    68  57  68 NE17G31   30.06R
BILLINGS       CLOUDY    66  57  73 NE22G28   30.08R
LIVINGSTON     PTCLDY    66  52  61 N13       30.14R
MILES CITY     PTCLDY    70  57  64 NE18G28   30.06R
* LAUREL APT   SUNNY     68  52  57 N11G16     N/A
* ROUNDUP APT  PTCLDY    64  54  70 N15G22     N/A
* ALZADA       N/A       70  62  76 N/A        N/A
* HYSHAM       N/A       65  57  75 E20G27     N/A
* REED POINT   N/A       69  55  61 NE3G8      N/A
* ROSCOE HILL  N/A       62  39  43 NW8G19     N/A
$$

REGIONAL REPORTS...DAKOTAS
CITY           SKY/WX    TMP DP  RH WIND       PRES   REMARKS
WILLISTON      CLOUDY    66  57  73 NE9       30.03R
DICKINSON      PTCLDY    68  61  78 N14       30.02R
CROSBY         N/A       59  57  93 NW13      30.05R
WATFORD CITY   SUNNY     64  61  90 CALM      30.03S
BISMARCK       PTSUNNY   70  66  87 N10       29.95R
GRAND FORKS    PTCLDY    70  68  93 W5        29.84R
FARGO          SUNNY     75  70  85 N/A       29.84R
BUFFALO SD     SUNNY     70  63  79 NE15      29.95R
RAPID CITY     SUNNY     75  63  66 NW5       29.99R
$$

REGIONAL REPORTS...WYOMING/IDAHO/WASHINGTON
CITY           SKY/WX    TMP DP  RH WIND       PRES   REMARKS
GILLETTE       PTCLDY    72  61  68 CALM      30.04R
SHERIDAN       PTCLDY    70  55  59 CALM      30.01R
CODY           PTCLDY    66  55  68 CALM      30.11R
YELLOWSTONE LA PTCLDY    55  50  83 CALM      30.34R
SALMON         PTCLDY    61  52  72 N3        30.05R
MULLAN PASS    SUNNY     63  39  41 CALM      30.17S
SAND POINT     SUNNY     59  52  78 CALM      30.00R
SPOKANE        PTSUNNY   68  50  53 NE10      29.96R

$$



USA.gov is the U.S. government's official web portal to all federal, state and local government web resources and services.